Tiempo cada hora Bolshie Peti

Hoy, 31 Julio, Sábado

Tiempo Temperatura Precipitaciones Viento Presión Humedad
00:00 +18°C° 0.1 mm 4 mps 743 mmHg 58%
01:00 +16°C° 0.1 mm 5 mps 742 mmHg 65%
02:00 +15°C° 0.1 mm 5 mps 742 mmHg 71%
03:00 +15°C° 0.2 mm 5 mps 742 mmHg 76%
04:00 +15°C° 0.2 mm 5 mps 742 mmHg 81%
05:00 +15°C° 0.2 mm 4 mps 742 mmHg 86%
06:00 +16°C° 0.1 mm 5 mps 742 mmHg 84%
07:00 +17°C° 0.1 mm 5 mps 743 mmHg 82%
08:00 +19°C° 0.1 mm 5 mps 743 mmHg 80%
09:00 +20°C° 0.2 mm 5 mps 743 mmHg 73%
10:00 +21°C° 0.2 mm 5 mps 744 mmHg 67%
11:00 +22°C° 0.2 mm 5 mps 744 mmHg 60%
12:00 +22°C° 0.4 mm 5 mps 744 mmHg 65%
13:00 +22°C° 0.4 mm 5 mps 744 mmHg 69%
14:00 +22°C° 0.4 mm 5 mps 745 mmHg 74%
15:00 +21°C° 0.4 mm 5 mps 745 mmHg 76%
16:00 +21°C° 0.4 mm 4 mps 745 mmHg 78%
17:00 +21°C° 0.4 mm 4 mps 746 mmHg 81%
18:00 +20°C° 0.3 mm 3 mps 746 mmHg 85%
19:00 +19°C° 0.3 mm 3 mps 746 mmHg 89%
20:00 +18°C° 0.3 mm 2 mps 746 mmHg 93%
21:00 +17°C° 0.1 mm 2 mps 746 mmHg 94%
22:00 +17°C° 0.1 mm 2 mps 746 mmHg 94%
23:00 +16°C° 0.1 mm 1 mps 746 mmHg 95%

Mañana, 1 Agosto, Domingo

Tiempo Temperatura Precipitaciones Viento Presión Humedad
00:00 +16°C° 0 mm 2 mps 746 mmHg 94%
01:00 +16°C° 0 mm 2 mps 746 mmHg 94%
02:00 +16°C° 0 mm 2 mps 746 mmHg 93%
03:00 +16°C° 0 mm 2 mps 746 mmHg 93%
04:00 +16°C° 0 mm 2 mps 746 mmHg 93%
05:00 +17°C° 0 mm 2 mps 746 mmHg 93%
06:00 +17°C° 0.1 mm 2 mps 746 mmHg 90%
07:00 +18°C° 0.1 mm 3 mps 746 mmHg 88%
08:00 +19°C° 0.1 mm 3 mps 746 mmHg 86%
09:00 +21°C° 0.2 mm 4 mps 746 mmHg 76%
10:00 +22°C° 0.2 mm 4 mps 746 mmHg 66%
11:00 +25°C° 0.2 mm 5 mps 746 mmHg 57%
12:00 +26°C° 0.1 mm 5 mps 746 mmHg 51%
13:00 +27°C° 0.1 mm 5 mps 746 mmHg 45%
14:00 +28°C° 0.1 mm 6 mps 745 mmHg 38%
15:00 +27°C° 0 mm 5 mps 746 mmHg 42%
16:00 +26°C° 0 mm 5 mps 746 mmHg 46%
17:00 +26°C° 0 mm 4 mps 746 mmHg 49%
18:00 +25°C° 0 mm 4 mps 746 mmHg 54%
19:00 +22°C° 0 mm 4 mps 747 mmHg 59%
20:00 +21°C° 0 mm 3 mps 747 mmHg 64%
21:00 +20°C° 0 mm 3 mps 747 mmHg 68%
22:00 +19°C° 0 mm 2 mps 747 mmHg 72%
23:00 +19°C° 0 mm 2 mps 747 mmHg 76%

Pasado mañana, 2 Agosto, Lunes

Tiempo Temperatura Precipitaciones Viento Presión Humedad
00:00 +18°C° 0 mm 2 mps 747 mmHg 79%
01:00 +18°C° 0 mm 2 mps 747 mmHg 81%
02:00 +17°C° 0 mm 2 mps 748 mmHg 84%
03:00 +17°C° 0 mm 2 mps 747 mmHg 86%
04:00 +16°C° 0 mm 2 mps 747 mmHg 88%
05:00 +16°C° 0 mm 1 mps 747 mmHg 91%
06:00 +18°C° 0 mm 1 mps 747 mmHg 88%
07:00 +18°C° 0 mm 1 mps 747 mmHg 85%
08:00 +19°C° 0 mm 1 mps 747 mmHg 82%
09:00 +19°C° 0.3 mm 1 mps 746 mmHg 83%
10:00 +19°C° 0.3 mm 1 mps 746 mmHg 85%
11:00 +19°C° 0.3 mm 1 mps 746 mmHg 86%
12:00 +19°C° 1.4 mm 1 mps 746 mmHg 90%
13:00 +18°C° 1.4 mm 1 mps 745 mmHg 93%
14:00 +16°C° 1.4 mm 0 mps 745 mmHg 97%
15:00 +18°C° 0.7 mm 1 mps 745 mmHg 97%
16:00 +18°C° 0.7 mm 1 mps 745 mmHg 98%
17:00 +16°C° 0.7 mm 2 mps 745 mmHg 98%
18:00 +16°C° 0.1 mm 2 mps 745 mmHg 98%
19:00 +16°C° 0.1 mm 2 mps 744 mmHg 97%
20:00 +16°C° 0.1 mm 2 mps 744 mmHg 97%
21:00 +15°C° 0 mm 2 mps 744 mmHg 97%
22:00 +15°C° 0 mm 2 mps 744 mmHg 97%
23:00 +15°C° 0 mm 2 mps 745 mmHg 97%

3 Agosto, Martes

Tiempo Temperatura Precipitaciones Viento Presión Humedad
00:00 +14°C° 0 mm 2 mps 745 mmHg 97%
01:00 +14°C° 0 mm 2 mps 745 mmHg 97%
02:00 +14°C° 0 mm 2 mps 745 mmHg 97%
03:00 +14°C° 0 mm 2 mps 745 mmHg 97%
04:00 +13°C° 0 mm 2 mps 746 mmHg 97%
05:00 +13°C° 0 mm 2 mps 746 mmHg 97%
06:00 +14°C° 0 mm 2 mps 746 mmHg 93%
07:00 +14°C° 0 mm 3 mps 746 mmHg 90%
08:00 +16°C° 0 mm 3 mps 746 mmHg 86%
09:00 +18°C° 0.1 mm 3 mps 747 mmHg 75%
10:00 +20°C° 0.1 mm 4 mps 747 mmHg 64%
11:00 +21°C° 0.1 mm 4 mps 747 mmHg 53%
12:00 +21°C° 0 mm 4 mps 747 mmHg 54%
13:00 +21°C° 0 mm 3 mps 748 mmHg 54%
14:00 +21°C° 0 mm 3 mps 748 mmHg 55%
15:00 +21°C° 0.1 mm 3 mps 748 mmHg 55%
16:00 +21°C° 0.1 mm 3 mps 749 mmHg 55%
17:00 +21°C° 0.1 mm 3 mps 749 mmHg 55%
18:00 +19°C° 0 mm 3 mps 749 mmHg 61%
19:00 +17°C° 0 mm 2 mps 750 mmHg 67%
20:00 +16°C° 0 mm 2 mps 750 mmHg 72%
21:00 +14°C° 0 mm 1 mps 751 mmHg 72%
22:00 +13°C° 0 mm 1 mps 751 mmHg 73%
23:00 +12°C° 0 mm 1 mps 752 mmHg 73%

4 Agosto, Miércoles

Tiempo Temperatura Precipitaciones Viento Presión Humedad
00:00 +12°C° 0 mm 1 mps 752 mmHg 74%
01:00 +11°C° 0 mm 1 mps 753 mmHg 74%
02:00 +11°C° 0 mm 1 mps 753 mmHg 75%
03:00 +11°C° 0 mm 1 mps 753 mmHg 76%
04:00 +11°C° 0 mm 1 mps 754 mmHg 78%
05:00 +11°C° 0 mm 1 mps 754 mmHg 79%
06:00 +13°C° 0 mm 1 mps 754 mmHg 72%
07:00 +15°C° 0 mm 1 mps 755 mmHg 65%
08:00 +18°C° 0 mm 2 mps 755 mmHg 57%
09:00 +19°C° 0 mm 2 mps 755 mmHg 50%
10:00 +20°C° 0 mm 2 mps 755 mmHg 43%
11:00 +21°C° 0 mm 2 mps 755 mmHg 37%
12:00 +23°C° 0 mm 2 mps 755 mmHg 35%
13:00 +24°C° 0 mm 2 mps 755 mmHg 33%
14:00 +24°C° 0 mm 2 mps 755 mmHg 31%
15:00 +24°C° 0 mm 2 mps 755 mmHg 32%
16:00 +24°C° 0 mm 2 mps 755 mmHg 33%
17:00 +23°C° 0 mm 1 mps 755 mmHg 34%
18:00 +21°C° 0 mm 1 mps 755 mmHg 41%
19:00 +19°C° 0 mm 1 mps 755 mmHg 49%
20:00 +16°C° 0 mm 1 mps 756 mmHg 56%
21:00 +15°C° 0 mm 1 mps 756 mmHg 57%
22:00 +14°C° 0 mm 1 mps 756 mmHg 59%
23:00 +13°C° 0 mm 1 mps 756 mmHg 60%

5 Agosto, Jueves

Tiempo Temperatura Precipitaciones Viento Presión Humedad
00:00 +13°C° 0 mm 1 mps 756 mmHg 62%
01:00 +13°C° 0 mm 1 mps 756 mmHg 64%
02:00 +12°C° 0 mm 1 mps 756 mmHg 65%
03:00 +13°C° 0 mm 1 mps 756 mmHg 66%
04:00 +13°C° 0 mm 2 mps 756 mmHg 67%
05:00 +13°C° 0 mm 2 mps 756 mmHg 69%
06:00 +15°C° 0 mm 2 mps 756 mmHg 63%
07:00 +17°C° 0 mm 2 mps 756 mmHg 58%
08:00 +19°C° 0 mm 2 mps 756 mmHg 52%
09:00 +20°C° 0 mm 3 mps 755 mmHg 47%
10:00 +22°C° 0 mm 3 mps 755 mmHg 42%
11:00 +23°C° 0 mm 4 mps 755 mmHg 37%
12:00 +25°C° 0 mm 4 mps 755 mmHg 37%
13:00 +25°C° 0 mm 4 mps 755 mmHg 36%
14:00 +25°C° 0 mm 4 mps 754 mmHg 36%
15:00 +25°C° 0 mm 4 mps 754 mmHg 38%
16:00 +25°C° 0 mm 3 mps 754 mmHg 40%
17:00 +24°C° 0 mm 3 mps 753 mmHg 42%
18:00 +22°C° 0 mm 4 mps 753 mmHg 46%
19:00 +21°C° 0 mm 4 mps 753 mmHg 49%
20:00 +20°C° 0 mm 4 mps 753 mmHg 53%
21:00 +19°C° 0 mm 4 mps 753 mmHg 57%
22:00 +19°C° 0 mm 3 mps 753 mmHg 61%
23:00 +18°C° 0 mm 3 mps 753 mmHg 65%
Mostrar más